Date,TemperatureHighF,TemperatureAvgF,TemperatureLowF,DewpointHighF,DewpointAvgF,DewpointLowF,HumidityHigh,HumidityAvg,HumidityLow,PressureMaxIn,PressureMinIn,WindSpeedMaxMPH,WindSpeedAvgMPH,GustSpeedMaxMPH,PrecipitationSumIn
2013-1-1,32.4,23.0,16.1,30.8,19.2,12.7,95,85,76,30.31,30.13,15,2,15,0.00
2013-1-2,31.8,20.1,10.6,20.5,14.9,8.0,91,81,58,30.32,30.23,7,0,7,0.01
2013-1-3,41.0,28.9,18.1,31.0,23.4,15.4,91,80,64,30.44,30.26,10,2,10,0.07
2013-1-4,42.2,31.1,22.4,27.8,22.9,19.7,91,73,51,30.47,30.33,14,1,14,0.01
2013-1-5,44.8,36.7,28.2,32.7,26.8,21.2,76,67,56,30.34,30.12,11,2,11,0.00
2013-1-6,41.3,33.4,21.3,33.1,25.0,17.8,87,72,51,30.42,30.11,18,3,18,0.00
2013-1-7,48.9,32.4,17.3,29.3,23.1,15.1,93,71,44,30.43,30.18,13,2,13,0.00
2013-1-8,57.0,43.6,30.7,36.9,28.0,23.2,79,57,28,30.23,30.10,15,3,15,0.00
2013-1-9,59.1,49.3,40.3,45.4,38.2,31.6,94,67,46,30.48,30.19,11,1,11,0.00
2013-1-10,55.0,45.9,40.9,54.5,41.5,31.6,100,85,60,30.46,29.79,12,2,12,0.46
2013-1-11,63.4,55.0,48.3,54.0,49.5,46.7,98,83,62,29.89,29.76,18,4,18,0.00
2013-1-12,56.6,46.9,30.5,50.2,41.2,29.0,94,82,55,29.96,29.80,20,4,20,0.72
2013-1-13,30.6,23.6,15.5,29.0,20.9,13.1,95,89,83,30.41,29.92,17,3,17,0.00
2013-1-14,27.1,19.7,14.4,18.5,14.5,11.7,91,80,60,30.57,30.40,9,1,9,0.00
2013-1-15,28.7,22.5,14.9,21.8,17.8,12.5,92,82,69,30.47,30.18,12,1,13,0.00
2013-1-16,43.4,30.7,17.0,24.8,21.2,14.6,92,70,44,30.20,30.06,15,2,15,0.00
2013-1-17,43.5,33.9,23.2,30.2,24.3,18.6,86,69,44,30.52,30.15,19,3,19,0.00
2013-1-18,55.8,38.3,20.9,29.8,24.5,17.6,88,61,33,30.53,30.14,16,4,16,0.00
2013-1-19,67.1,52.0,39.9,38.5,33.5,28.3,65,50,33,30.16,29.91,19,5,19,0.00
2013-1-20,47.3,32.8,24.5,33.1,17.6,11.6,73,54,38,30.35,30.14,18,3,18,0.00
2013-1-21,30.1,20.7,14.5,12.8,6.1,-0.5,76,54,34,30.44,30.32,20,4,20,0.00
2013-1-22,18.9,15.8,12.3,10.9,5.3,0.2,82,63,48,30.53,30.41,9,1,9,0.00
2013-1-23,45.1,27.8,12.7,25.5,17.5,9.8,90,67,44,30.42,30.19,15,2,15,0.00
2013-1-24,28.0,21.9,14.7,16.0,9.3,2.1,73,58,46,30.63,30.27,19,4,19,0.00
2013-1-25,44.6,34.3,25.7,24.8,19.5,12.7,66,55,43,30.29,30.15,15,3,15,0.00
2013-1-26,42.1,33.3,25.4,23.0,18.9,15.3,77,56,36,30.42,30.26,11,2,11,0.00
2013-1-27,53.7,37.2,28.1,52.3,33.8,18.8,97,88,66,30.33,29.97,17,4,17,0.14
2013-1-28,73.2,63.2,53.8,62.9,58.4,52.1,94,85,68,29.99,29.84,14,4,14,0.00
2013-1-29,67.6,61.5,52.3,61.2,58.0,51.5,97,88,75,29.84,29.41,23,5,23,1.55
2013-1-30,52.3,38.2,26.8,51.4,34.9,18.7,100,88,71,29.95,29.34,28,6,28,0.13
2013-1-31,33.4,23.9,10.7,26.7,16.1,2.1,90,72,63,30.43,29.95,16,6,23,0.00
2013-2-1,28.2,18.8,6.5,13.9,6.9,0.8,78,60,44,30.55,30.26,16,2,16,0.01
2013-2-2,44.4,34.0,27.9,29.0,22.6,12.7,92,63,48,30.26,30.08,20,4,21,0.01
2013-2-3,36.4,30.8,27.5,29.2,23.4,17.8,94,75,50,30.23,30.02,23,3,23,0.14
2013-2-4,61.7,39.5,27.5,39.0,29.4,21.4,83,69,41,30.02,29.80,22,3,22,0.00
2013-2-5,58.6,39.4,25.5,37.9,30.2,23.0,92,72,43,30.16,29.91,16,2,16,0.00
2013-2-6,54.4,39.9,25.0,34.0,30.2,23.2,95,71,44,30.26,30.07,13,2,13,0.00
2013-2-7,53.9,43.2,37.3,46.9,38.2,31.3,95,83,62,30.07,29.87,19,2,19,0.10
2013-2-8,38.8,34.6,31.0,36.6,30.4,26.5,92,85,78,30.39,30.07,21,3,21,0.00
2013-2-9,34.6,29.9,28.8,28.1,26.0,25.1,92,85,77,30.40,30.33,12,3,12,0.00
2013-2-24,43.0,37.0,32.3,36.3,29.0,27.7,95,73,60,30.10,29.99,10,2,11,0.40
2013-2-25,44.6,37.1,30.1,33.3,30.4,26.6,93,77,60,30.09,29.63,23,4,23,0.47
2013-2-26,39.2,35.2,32.4,38.2,34.0,31.1,96,95,93,29.70,29.35,23,5,23,1.05
2013-2-27,33.6,31.9,30.5,32.1,30.3,27.9,96,93,90,29.93,29.70,14,5,14,0.09
2013-2-28,33.9,31.9,30.3,30.9,29.0,27.7,93,89,83,30.14,29.92,15,3,15,0.02
2013-3-1,32.8,30.1,27.4,30.3,27.6,24.3,93,90,86,30.24,30.10,15,3,15,0.07
2013-3-2,33.0,27.5,21.0,24.6,21.5,16.6,92,78,64,30.29,30.22,18,3,18,0.04
2013-3-3,38.3,28.8,14.4,27.2,20.9,12.3,93,73,54,30.25,30.06,11,1,11,0.03
2013-3-4,53.2,42.7,34.1,42.5,33.6,27.1,89,71,52,30.06,29.76,20,4,20,0.00
2013-3-5,43.8,34.7,30.5,38.0,30.0,24.8,94,83,70,30.17,29.80,33,5,33,0.20
2013-3-6,38.7,31.9,23.9,27.6,24.2,20.3,87,73,60,30.40,30.16,21,4,21,0.02
2013-3-7,48.2,34.4,20.6,31.3,26.3,18.5,93,74,48,30.45,30.32,11,2,11,0.00
2013-3-8,53.8,41.6,28.7,35.5,31.3,26.1,91,69,47,30.44,30.21,15,4,15,0.00
2013-3-9,68.6,51.8,38.9,45.2,38.0,32.4,95,63,34,30.21,29.80,21,6,21,0.25
2013-3-10,61.1,52.0,44.3,52.2,48.8,43.1,97,90,55,29.80,29.63,22,3,22,1.53
2013-3-11,44.2,34.6,31.9,43.1,31.4,26.6,100,88,76,30.02,29.73,18,5,18,0.01
2013-3-12,52.1,37.3,27.5,31.7,26.7,23.8,89,68,38,30.24,30.00,23,4,23,0.00
2013-3-13,44.0,34.2,26.3,24.7,21.0,17.7,79,60,40,30.45,30.24,22,4,22,0.00
2013-3-14,53.3,37.7,24.3,34.4,26.9,19.4,88,67,42,30.43,30.11,14,2,14,0.00
2013-3-15,72.5,53.3,31.0,48.9,40.4,28.5,93,65,38,30.11,29.66,9,1,9,0.00
2013-3-16,64.3,48.9,38.1,49.0,40.5,35.7,93,74,50,30.05,29.65,20,4,20,0.04
2013-3-17,38.2,34.9,32.4,35.9,32.7,29.2,96,92,85,30.11,29.80,16,4,16,1.42
2013-3-18,48.4,40.4,36.2,40.0,35.3,24.5,97,84,56,30.04,29.71,18,3,18,0.03
2013-3-19,49.6,38.6,28.7,25.0,20.5,15.8,77,51,28,30.24,30.04,17,2,17,0.00
2013-3-20,38.1,31.9,24.4,30.0,19.9,12.7,88,62,40,30.30,30.14,26,4,26,0.00
2013-3-21,39.9,29.2,17.2,20.6,15.7,12.4,84,58,39,30.16,30.01,11,2,11,0.00
2013-3-22,41.9,36.2,31.3,27.0,24.3,20.2,70,62,50,30.07,30.00,12,2,12,0.00
2013-3-23,52.9,44.1,37.1,37.7,28.9,22.1,86,56,41,30.06,29.83,16,3,17,0.04
2013-3-24,41.0,33.0,31.9,37.2,31.6,30.5,96,94,87,29.88,29.58,20,3,20,0.19
2013-3-25,34.4,32.3,31.2,33.9,31.4,29.9,98,97,95,30.23,29.86,21,2,21,0.17
2013-3-26,38.6,33.0,25.8,38.3,31.9,23.8,99,96,86,30.38,30.23,15,2,15,0.55
2013-3-27,48.2,34.6,20.9,32.3,26.3,19.2,96,74,45,30.43,30.32,8,1,8,0.01
2013-3-28,56.3,45.9,36.0,40.3,34.0,27.3,75,63,53,30.37,30.23,12,2,12,0.00
2013-3-29,65.4,51.9,40.8,48.2,42.9,37.9,97,73,48,30.26,30.17,14,2,14,0.00
2013-3-30,53.5,46.2,40.2,47.5,43.3,38.5,96,90,71,30.21,29.93,15,2,15,0.08
2013-3-31,70.7,56.7,46.9,52.4,44.8,35.3,97,69,33,29.94,29.85,14,2,17,0.01
2013-4-1,52.6,43.9,34.8,34.7,27.0,19.8,70,52,33,30.25,29.93,22,4,22,0.00
2013-4-2,49.4,38.6,26.5,24.0,20.7,10.6,80,51,21,30.37,30.25,12,1,12,0.00
2013-4-3,53.1,42.8,29.1,27.2,24.2,19.5,77,49,31,30.42,30.26,18,2,18,0.00
2013-4-4,61.7,47.4,31.4,29.1,26.2,23.2,78,47,25,30.26,30.04,13,1,13,0.00
2013-4-5,68.6,53.4,36.6,42.3,34.1,27.3,73,51,29,30.19,30.03,12,2,12,0.00
2013-4-6,73.9,62.9,49.4,45.8,40.2,36.6,64,45,29,30.04,29.71,26,6,26,0.00
2013-4-7,81.0,67.3,56.1,61.3,51.6,45.7,88,59,35,29.90,29.68,18,3,18,0.04
2013-4-8,81.9,69.3,60.5,63.3,58.2,54.4,89,69,52,29.85,29.68,19,5,19,0.00
2013-4-9,77.0,70.6,63.7,63.8,60.6,57.4,81,71,63,29.86,29.78,22,4,22,0.00
2013-4-10,81.4,68.1,59.4,68.2,62.9,58.1,97,84,59,29.83,29.56,24,2,24,0.88
2013-4-11,59.7,45.4,39.8,58.8,41.1,31.8,97,85,72,29.77,29.63,15,4,15,0.08
2013-4-12,44.6,40.9,35.3,33.8,32.3,29.8,81,71,63,30.04,29.74,20,4,20,0.00
2013-4-13,64.2,49.3,33.1,43.0,36.1,30.1,90,63,38,30.10,29.90,13,2,13,0.00
2013-4-14,81.1,63.8,46.4,57.0,48.5,41.8,84,61,31,29.90,29.57,26,6,26,0.00
2013-4-15,69.3,61.4,52.7,62.2,56.6,49.5,97,84,71,29.95,29.72,15,3,17,0.26
2013-4-16,52.8,46.5,43.6,50.0,45.0,42.4,97,95,87,30.15,29.86,24,4,24,0.30
2013-4-17,84.2,65.0,47.4,69.5,57.7,45.5,98,80,54,30.13,29.66,17,4,17,0.00
2013-4-18,76.0,58.8,40.1,68.2,55.2,33.5,98,89,72,29.78,29.54,23,5,24,0.00
2013-4-19,52.1,42.9,37.0,33.4,29.6,26.1,77,61,38,30.09,29.76,24,6,24,0.00
2013-4-20,58.1,45.4,29.7,34.1,29.8,26.6,92,58,35,30.34,30.09,11,1,11,0.00
2013-4-21,62.7,52.3,41.9,43.4,37.6,31.5,71,58,46,30.42,30.24,12,3,12,0.00
2013-4-22,73.9,59.1,39.1,47.5,42.0,35.8,92,56,33,30.27,29.96,15,2,17,0.00
2013-4-23,62.5,50.6,38.7,55.4,46.9,37.6,100,88,58,30.04,29.87,22,2,22,0.99
2013-4-24,55.2,43.5,36.0,39.0,35.2,30.0,96,76,40,30.27,30.01,15,3,15,0.03
2013-4-25,65.7,51.5,34.7,39.4,34.9,30.7,90,57,33,30.36,30.25,14,2,14,0.00
2013-4-26,59.6,52.1,45.8,49.3,44.5,38.7,89,76,62,30.38,30.26,11,2,13,0.00
2013-4-27,52.9,50.6,48.4,52.1,49.3,46.0,97,95,89,30.29,29.93,7,1,7,0.43
2013-4-28,56.6,52.8,47.7,52.1,50.7,45.5,98,93,83,29.98,29.90,11,1,11,0.00
2013-4-29,82.2,63.5,44.0,63.5,54.7,42.9,98,76,47,29.94,29.76,15,2,15,0.00
2013-4-30,89.3,74.8,63.0,62.4,57.7,52.7,84,59,30,29.92,29.78,12,3,17,0.00
2013-5-1,83.2,71.7,54.4,62.0,57.7,51.8,95,64,41,30.06,29.91,11,1,11,0.00
2013-5-2,72.4,59.2,42.4,61.0,53.8,41.1,95,83,58,30.16,30.04,19,2,19,0.76
2013-5-3,42.4,39.9,38.0,41.1,39.0,37.0,97,96,95,30.10,29.84,12,1,12,1.96
2013-5-4,51.1,43.3,38.0,43.9,40.2,37.2,98,89,64,30.02,29.85,10,0,10,0.00
2013-5-5,58.4,51.3,42.3,57.3,50.0,40.4,98,95,90,30.01,29.89,15,1,15,0.00
2013-5-6,68.0,60.2,52.3,57.0,54.3,50.7,96,82,62,29.98,29.91,17,2,17,0.00
2013-5-7,77.8,66.7,56.9,59.3,56.1,52.1,93,71,45,30.03,29.96,12,1,12,0.00
2013-5-8,83.7,67.1,53.1,62.3,56.0,51.0,96,72,34,30.03,29.95,7,0,7,0.00
2013-5-9,75.7,67.3,61.0,65.2,61.0,58.7,94,81,58,29.97,29.82,17,1,17,0.02
2013-5-10,65.1,61.0,55.4,60.5,57.2,51.3,95,87,77,30.00,29.82,13,1,13,0.00
2013-5-11,70.5,59.1,50.3,55.2,46.0,34.4,94,65,35,30.16,29.99,20,2,20,0.00
2013-5-12,63.3,51.9,40.4,41.1,33.7,26.3,83,53,30,30.24,30.15,18,1,18,0.00
2013-5-13,74.4,57.1,38.0,48.6,40.7,35.0,94,59,29,30.24,30.03,5,0,5,0.00
2013-5-14,92.9,75.3,55.5,60.2,54.1,46.8,82,51,30,30.03,29.78,12,2,12,0.00
2013-5-15,91.2,78.6,67.2,66.7,60.8,52.9,73,55,39,29.92,29.78,11,1,11,0.00
2013-5-16,78.8,71.7,63.3,70.5,64.1,59.1,95,78,56,29.92,29.82,7,0,7,0.12
2013-5-17,74.9,68.4,62.4,67.9,64.0,59.2,93,86,75,29.95,29.88,4,0,4,0.01
2013-5-18,81.4,71.6,61.4,68.9,65.2,59.9,97,81,63,29.99,29.84,6,0,6,0.00
2013-5-19,89.3,78.3,68.5,76.4,69.3,65.5,91,75,54,29.87,29.66,15,1,15,0.00
2013-5-20,78.0,70.7,62.1,71.1,66.5,60.3,98,87,75,29.87,29.66,30,1,30,1.09
2013-5-21,77.5,67.3,61.7,68.1,63.7,60.8,98,89,69,29.79,29.67,9,0,9,0.03
2013-5-22,74.3,67.1,61.6,62.0,59.3,55.2,95,77,58,29.87,29.65,11,1,11,0.00
2013-5-23,64.9,61.1,56.3,59.8,55.1,50.4,93,81,70,30.21,29.86,13,1,13,0.00
2013-5-24,68.8,57.6,46.4,51.8,43.7,34.9,93,64,32,30.40,30.21,10,1,10,0.00
2013-5-25,65.0,57.7,46.3,59.1,52.3,43.8,95,83,61,30.34,30.12,6,0,6,0.06
2013-5-26,81.7,68.0,57.3,74.4,62.7,53.2,98,84,65,30.18,29.97,5,0,5,0.39
2013-5-27,79.9,69.0,64.1,71.9,65.7,62.2,97,90,73,30.00,29.70,24,1,24,0.57
2013-5-28,81.9,73.6,64.4,72.4,67.9,63.2,97,83,67,29.87,29.77,9,1,9,0.00
2013-5-29,85.0,76.9,66.4,70.1,66.4,62.8,92,71,52,29.93,29.78,12,1,12,0.00
2013-5-30,81.0,74.0,64.1,74.3,68.1,62.9,96,82,66,29.89,29.76,12,1,12,0.56
2013-5-31,75.4,68.2,63.0,73.2,66.6,62.1,98,95,84,29.87,29.70,11,1,15,1.73
2013-6-1,72.5,66.3,62.5,69.2,64.0,58.7,99,93,71,29.88,29.69,11,1,11,0.06
2013-6-2,65.5,62.9,59.7,60.1,57.7,53.9,88,83,77,30.02,29.88,10,1,10,0.00
2013-6-3,71.3,63.1,57.1,57.7,53.1,49.0,88,71,48,30.09,29.97,9,0,9,0.00
2013-6-4,76.4,63.9,51.4,61.4,56.2,49.7,96,77,56,30.08,29.98,9,0,9,0.00
2013-6-5,80.3,67.3,57.1,67.3,61.4,55.3,96,83,52,30.01,29.83,6,0,6,0.01
2013-6-6,76.2,68.3,61.7,65.2,61.0,56.1,96,79,56,29.86,29.81,13,1,13,0.00
2013-6-7,74.7,66.0,58.7,61.2,58.3,55.2,91,77,60,29.91,29.85,16,2,16,0.00
2013-6-8,78.9,67.2,54.4,62.2,58.1,52.7,97,75,50,29.96,29.88,3,0,3,0.00
2013-6-9,76.8,65.3,59.5,67.3,61.6,57.2,96,88,68,29.93,29.78,12,0,12,0.01
2013-6-10,77.7,68.6,61.7,66.0,63.0,60.5,96,83,64,29.90,29.76,13,0,13,0.01
2013-6-11,89.2,75.0,59.1,78.2,68.9,57.4,97,82,61,29.95,29.83,6,0,6,0.00
2013-6-12,93.3,83.2,70.9,77.2,73.2,67.7,92,73,58,29.93,29.71,11,1,11,0.00
2013-6-13,83.8,75.4,66.4,72.8,66.0,61.8,86,73,59,29.97,29.72,15,1,15,0.00
2013-6-14,82.5,71.5,59.5,67.0,62.2,57.5,95,74,49,30.08,29.92,7,0,7,0.00
2013-6-15,86.3,74.0,64.9,73.7,66.9,60.6,96,79,62,30.09,29.90,14,0,14,0.32
2013-6-16,81.8,72.6,67.5,76.3,70.5,66.6,99,94,77,30.01,29.88,6,0,6,0.44
2013-6-17,83.0,70.5,64.3,76.5,68.5,63.4,100,94,68,29.93,29.83,14,0,14,0.46
2013-6-18,86.8,72.6,61.1,73.4,65.9,60.5,100,82,52,29.95,29.89,9,0,9,0.00
2013-6-19,83.1,73.4,64.0,71.7,66.2,61.9,94,79,58,30.04,29.95,6,0,6,0.00
2013-6-20,88.1,77.0,64.0,74.0,69.3,62.4,97,79,59,30.09,30.00,5,0,5,0.00
2013-6-21,89.1,80.0,68.2,77.9,72.5,66.4,95,79,66,30.08,29.96,5,0,5,0.00
2013-6-22,86.8,73.7,66.5,77.9,69.4,64.8,97,87,64,30.05,29.97,10,0,10,0.20
2013-6-23,88.5,73.9,66.5,77.1,69.2,64.8,97,86,65,30.04,29.92,17,0,18,0.98
2013-6-24,89.3,76.9,65.6,76.8,71.6,65.0,100,85,62,30.05,29.90,5,0,5,0.00
2013-6-25,91.2,82.1,74.3,79.2,74.3,70.5,88,78,64,29.94,29.75,5,0,5,0.00
2013-6-26,91.0,78.1,72.9,80.2,74.3,71.3,98,89,67,29.83,29.69,18,0,18,0.54
2013-6-27,91.7,79.0,69.1,77.8,72.2,68.5,98,82,52,29.88,29.74,12,0,12,0.00
2013-6-28,87.2,78.3,71.3,73.2,67.7,59.8,96,72,43,29.83,29.68,17,1,17,0.02
2013-6-29,81.8,71.5,66.1,66.7,63.1,60.3,93,75,53,29.72,29.63,26,1,26,0.11
2013-6-30,75.0,67.3,64.1,67.8,63.5,60.9,96,88,73,29.90,29.72,15,2,16,0.09
2013-7-1,78.8,70.5,63.7,63.6,58.1,54.1,96,66,48,29.96,29.89,20,2,20,0.00
2013-7-2,70.4,63.4,60.0,61.8,59.2,54.8,96,87,59,30.04,29.92,16,1,16,0.15
2013-7-3,81.6,69.0,60.4,66.9,62.5,59.4,97,81,52,30.09,29.99,3,0,3,0.01
2013-7-4,84.3,72.3,60.4,67.4,63.2,58.3,95,75,51,30.08,29.97,6,0,6,0.00
2013-7-5,83.7,72.7,62.1,71.0,66.2,60.3,97,81,59,30.06,29.97,4,0,6,0.00
2013-7-6,88.4,73.8,65.6,72.6,67.4,62.3,97,82,53,30.03,29.93,6,0,10,0.05
2013-7-7,90.1,76.3,64.8,74.8,69.7,63.6,97,82,58,30.03,29.96,4,0,4,0.01
2013-7-8,91.8,80.8,72.4,78.6,73.5,68.2,88,79,61,30.07,29.97,4,0,5,0.00
2013-7-9,91.8,83.0,75.2,79.1,75.2,71.2,88,78,64,30.02,29.89,4,0,4,0.00
2013-7-10,84.6,77.5,70.1,79.0,73.4,68.6,97,87,70,29.98,29.86,13,0,13,0.11
2013-7-11,83.3,75.4,66.8,69.3,64.2,60.8,91,70,48,30.04,29.96,11,1,11,0.00
2013-7-12,84.8,71.9,60.4,67.6,61.4,57.0,96,72,42,30.11,30.00,7,0,7,0.00
2013-7-13,85.6,72.8,58.9,66.4,62.2,56.9,96,72,47,30.09,29.98,8,0,8,0.00
2013-7-14,87.3,76.2,65.0,72.8,67.9,62.4,92,77,57,30.12,30.02,11,0,11,0.00
2013-7-15,90.1,79.6,70.4,76.8,73.3,68.4,96,82,59,30.20,30.10,6,0,6,0.00
2013-7-16,91.3,81.4,72.3,76.6,73.8,70.5,96,79,59,30.27,30.18,4,0,4,0.00
2013-7-17,91.1,81.5,71.7,78.7,74.3,69.8,95,80,60,30.30,30.16,4,0,4,0.00
2013-7-18,95.5,83.2,72.9,77.8,74.8,71.1,96,77,53,30.19,29.99,4,0,4,0.00
2013-7-19,96.5,82.8,74.4,77.6,74.0,71.3,91,76,52,29.99,29.84,4,0,4,0.00
2013-7-20,90.8,80.7,73.6,76.9,72.4,68.0,90,77,52,29.89,29.78,13,0,14,0.00
2013-7-21,80.0,75.3,71.6,73.7,71.4,69.2,94,88,77,29.91,29.81,3,0,3,0.00
2013-7-22,91.3,79.2,69.6,76.9,72.8,68.1,96,82,59,29.85,29.74,4,0,4,0.00
2013-7-23,90.5,80.8,73.3,77.0,72.0,66.6,92,76,56,29.87,29.71,12,1,12,0.00
2013-7-24,79.2,72.9,64.1,66.8,60.3,56.0,85,66,46,30.01,29.88,9,1,12,0.00
2013-7-25,82.5,76.2,59.7,64.9,60.5,56.3,90,60,45,30.11,30.01,7,0,7,0.00
2013-7-26,71.5,68.5,64.1,69.6,64.9,59.6,96,88,79,30.06,29.93,4,0,4,0.14
2013-7-27,74.8,67.1,57.4,66.8,58.9,52.4,96,77,50,30.00,29.94,12,1,12,0.01
2013-7-28,80.1,65.9,51.8,61.4,55.6,50.1,96,72,45,30.04,29.97,8,0,8,0.00
2013-7-29,73.5,66.8,57.1,67.4,62.4,55.1,97,86,74,30.15,30.04,2,0,2,0.00
2013-7-30,72.0,69.2,64.8,71.1,67.6,62.9,98,95,82,30.10,29.97,5,0,5,0.71
2013-7-31,80.2,72.9,66.7,73.1,69.8,64.6,98,90,72,30.03,29.97,11,1,14,0.00
2013-8-1,85.2,73.5,64.0,69.9,65.9,59.3,97,79,43,30.07,29.96,9,0,10,0.00
2013-8-2,79.8,72.1,64.9,73.3,68.5,62.5,97,89,74,29.98,29.88,5,0,5,0.05
2013-8-3,84.5,74.4,68.3,75.1,69.9,65.0,98,87,64,30.09,29.90,14,1,14,0.14
2013-8-4,79.1,71.6,63.0,66.8,63.4,59.4,95,77,52,30.16,30.05,5,0,5,0.00
2013-8-5,73.3,70.1,66.5,69.4,66.0,62.5,95,87,80,30.08,29.86,6,0,6,0.00
2013-8-6,88.4,77.5,69.9,74.6,71.8,68.8,98,84,60,29.91,29.81,4,0,4,0.00
2013-8-7,89.7,78.8,71.0,74.4,71.7,68.5,95,80,56,29.89,29.77,11,0,11,0.00
2013-8-8,79.4,74.7,71.6,75.5,72.1,69.8,96,92,85,29.94,29.85,11,0,11,0.08
2013-8-9,80.6,74.1,69.2,73.5,70.0,67.5,97,87,70,30.05,29.92,6,0,6,0.01
2013-8-10,84.6,75.6,67.0,70.5,66.5,60.6,96,75,48,30.12,30.03,11,1,12,0.00
2013-8-11,88.3,74.2,59.4,65.2,61.8,57.7,96,69,38,30.13,30.00,7,0,7,0.00
2013-8-12,79.8,73.0,67.7,74.5,69.3,63.2,96,88,77,30.05,29.89,6,0,6,0.08
2013-8-13,78.8,71.7,65.3,69.7,64.6,55.0,95,79,61,30.11,29.93,14,1,14,0.00
2013-8-14,75.2,64.6,53.1,57.4,53.6,50.2,95,70,45,30.19,30.11,12,1,12,0.00
2013-8-15,74.8,64.7,54.6,58.3,54.8,52.3,94,73,48,30.16,30.06,12,0,12,0.00
2013-8-16,75.9,65.9,54.9,59.3,56.4,52.9,94,74,50,30.14,30.08,12,0,12,0.00
2013-8-17,80.0,69.4,57.6,64.6,59.9,55.2,94,74,52,30.17,30.08,11,1,11,0.00
2013-8-18,83.5,71.7,62.4,67.1,63.3,59.8,92,76,53,30.16,30.05,10,0,10,0.00
2013-8-19,86.5,73.8,61.4,69.6,64.4,59.7,96,75,49,30.11,29.99,3,0,3,0.00
2013-8-20,88.2,75.9,63.2,71.1,66.5,61.0,96,75,50,30.10,30.00,4,0,4,0.00
2013-8-21,91.3,77.9,66.2,71.3,67.7,64.3,95,73,44,30.11,29.99,5,0,5,0.00
2013-8-22,90.5,80.0,69.7,75.2,71.1,67.0,92,76,54,30.08,29.98,6,0,6,0.00
2013-8-23,90.1,79.8,71.6,75.5,71.4,67.6,96,77,53,30.07,30.00,11,0,11,0.00
2013-8-24,92.4,79.0,66.4,72.3,68.3,64.3,95,72,44,30.17,30.06,6,0,6,0.00
2013-8-25,94.6,79.3,64.5,72.0,67.2,57.4,95,70,35,30.24,30.12,5,0,5,0.00
2013-8-26,95.6,82.8,72.1,77.3,73.0,70.3,96,74,49,30.18,30.03,4,0,4,0.00
2013-8-27,95.6,82.9,72.8,75.5,71.4,68.2,91,70,43,30.06,29.95,12,0,12,0.00
2013-8-28,96.7,82.7,70.3,72.9,69.2,66.0,92,67,37,30.01,29.94,8,0,8,0.00
2013-8-29,98.0,83.4,71.3,77.0,72.1,68.4,92,70,46,30.02,29.91,7,0,7,0.00
2013-8-30,100.5,86.3,73.5,77.7,72.6,69.6,89,66,39,29.93,29.79,11,0,11,0.00
2013-8-31,101.6,87.2,76.7,75.9,73.3,69.3,88,66,40,29.81,29.67,4,0,9,0.00
2013-9-1,91.8,82.3,73.7,76.5,73.0,69.9,93,74,58,29.81,29.73,9,0,9,0.00
2013-9-2,85.2,76.2,67.8,71.7,64.4,61.5,88,68,48,29.94,29.81,12,1,12,0.00
2013-9-3,83.6,70.9,58.5,61.7,58.6,54.1,93,68,39,30.06,29.93,8,0,8,0.00
2013-9-4,88.0,71.9,57.5,65.2,59.1,55.2,95,68,34,30.15,30.05,8,0,8,0.00
2013-9-5,88.7,73.0,59.2,66.3,61.7,56.6,93,70,40,30.18,30.10,5,0,5,0.00
2013-9-6,91.3,75.8,62.5,67.5,64.0,59.9,93,70,40,30.16,30.00,5,0,5,0.00
2013-9-7,93.6,78.2,63.0,69.8,65.6,60.6,94,68,39,30.03,29.88,6,0,6,0.00
2013-9-8,86.6,76.5,70.9,74.6,70.3,66.1,96,82,63,30.00,29.87,6,0,6,0.32
2013-9-9,99.3,83.8,72.6,76.1,71.6,68.8,93,70,40,29.95,29.87,5,0,5,0.00
2013-9-10,98.8,83.8,72.0,72.9,68.7,64.3,91,64,33,30.05,29.94,8,0,8,0.00
2013-9-11,97.8,83.2,70.7,72.3,68.2,65.3,86,63,37,30.10,29.98,9,0,9,0.00
2013-9-12,86.1,78.0,68.1,70.5,64.8,53.1,88,65,44,30.05,29.94,14,1,14,0.00
2013-9-13,75.5,65.9,55.9,57.9,52.4,47.5,83,63,41,30.12,30.04,13,1,13,0.00
2013-9-14,76.9,62.4,49.0,51.6,47.5,42.8,91,62,30,30.16,30.02,7,0,7,0.00
2013-9-15,82.0,67.2,52.6,67.4,56.3,46.5,92,69,47,30.09,29.97,10,0,10,0.03
2013-9-16,72.0,64.7,58.7,65.5,58.5,54.4,92,81,62,30.26,30.09,12,1,12,0.01
2013-9-17,72.3,64.7,58.2,66.1,60.0,54.4,95,85,73,30.23,30.05,4,0,4,0.02
2013-9-18,88.9,74.5,64.8,73.1,67.8,63.3,97,81,54,30.06,29.92,6,0,6,0.20
2013-9-19,91.0,80.5,73.3,73.9,71.5,69.1,89,75,54,29.97,29.82,7,1,7,0.00
2013-9-20,77.3,68.1,59.7,70.9,65.3,55.3,96,91,80,29.91,29.85,11,0,11,0.42
2013-9-21,71.7,60.4,52.1,55.8,52.2,50.0,95,77,48,29.97,29.89,14,1,14,0.00
2013-9-22,76.0,60.9,47.0,55.3,51.1,45.4,98,74,43,30.02,29.92,6,0,6,0.00
2013-9-23,77.5,62.7,49.7,56.6,52.3,47.9,95,72,45,30.02,29.90,8,0,8,0.00
2013-9-24,81.9,66.9,52.2,67.2,59.3,50.0,94,78,54,29.94,29.76,6,0,6,0.00
2013-9-25,81.9,71.0,64.0,67.3,64.8,61.1,96,82,58,29.85,29.76,7,0,7,0.01
2013-9-26,85.7,70.9,59.2,68.1,62.1,57.5,96,76,47,29.99,29.85,7,0,7,0.00
2013-9-27,83.3,70.6,58.6,67.3,60.7,56.6,95,73,47,30.08,29.97,8,0,8,0.00
2013-9-28,83.6,71.3,60.2,69.0,63.2,56.6,93,77,56,30.02,29.92,13,1,13,0.01
2013-9-29,74.8,64.4,54.2,67.1,54.8,50.4,93,73,45,30.06,29.95,15,1,15,0.00
2013-9-30,78.5,63.3,48.8,64.5,57.2,46.9,97,82,58,29.98,29.87,6,0,6,0.00
2013-10-1,84.0,70.8,62.0,70.7,66.1,60.0,96,86,62,30.01,29.92,5,0,5,0.00
2013-10-2,84.5,73.6,67.7,71.9,68.4,66.4,96,85,60,30.03,29.93,6,0,6,0.00
2013-10-3,85.7,75.7,67.5,71.7,68.9,65.1,94,80,61,29.95,29.84,12,1,12,0.00
2013-10-4,86.0,76.4,66.8,72.3,69.6,65.0,96,81,59,29.95,29.87,11,1,11,0.00
2013-10-5,76.4,68.6,54.1,71.0,65.2,51.8,94,89,71,29.93,29.80,11,0,11,0.14
2013-10-6,56.6,52.1,47.2,52.2,45.5,41.2,95,79,59,29.92,29.84,17,1,17,0.01
2013-10-7,70.3,56.7,50.2,51.3,47.9,46.2,90,74,47,30.14,29.91,11,1,11,0.00
2013-10-8,74.3,58.5,45.2,54.3,48.6,43.6,96,73,41,30.20,30.11,6,0,6,0.00
2013-10-9,75.2,58.9,44.2,55.8,50.2,42.3,95,75,48,30.19,30.07,7,0,7,0.00
2013-10-10,77.4,63.9,51.6,64.2,56.9,49.8,97,80,57,30.15,29.99,5,0,5,0.00
2013-10-11,79.2,65.2,52.7,63.0,57.1,51.0,96,77,50,30.03,29.88,12,1,12,0.00
2013-10-12,77.2,65.2,55.1,63.0,57.5,46.7,92,78,55,30.19,29.92,11,1,11,0.00
2013-10-13,72.8,59.5,49.4,47.8,42.7,38.3,82,57,29,30.37,30.19,9,1,9,0.00
2013-10-14,66.8,56.5,45.4,54.9,45.1,38.2,83,67,50,30.34,30.05,6,0,6,0.00
2013-10-15,66.7,61.9,54.4,64.3,58.8,50.3,96,90,80,30.06,29.88,8,0,8,0.37
2013-10-16,60.4,51.1,43.8,50.2,44.4,41.6,93,79,58,30.05,29.96,13,1,13,0.00
2013-10-17,65.0,52.2,45.4,48.7,44.5,41.3,95,77,42,30.01,29.92,10,1,10,0.02
2013-10-18,60.5,50.7,41.5,46.4,41.8,37.6,94,73,46,30.07,29.96,11,1,11,0.04
2013-10-19,58.4,46.2,39.3,41.9,39.1,36.1,95,78,44,30.05,29.96,13,1,13,0.19
2013-10-20,72.0,55.5,42.6,46.2,42.2,37.9,84,63,37,29.98,29.85,12,2,12,0.00
2013-10-21,53.9,49.0,36.8,45.6,41.1,33.4,88,74,53,30.07,29.92,14,1,14,0.00
2013-10-22,60.7,45.3,34.6,48.7,38.7,32.5,93,79,57,30.07,29.80,21,2,21,0.01
2013-10-23,49.1,42.3,35.7,37.1,33.6,28.6,90,73,49,30.15,30.01,14,1,15,0.00
2013-10-24,48.7,40.1,29.5,36.5,30.1,25.5,94,70,45,30.44,30.14,22,2,22,0.00
2013-10-25,55.4,38.8,25.6,33.8,28.3,23.4,93,69,36,30.54,30.23,7,0,7,0.00
2013-10-26,65.8,49.6,38.8,46.1,36.1,29.3,76,60,44,30.23,30.02,15,2,15,0.00
2013-10-27,61.4,43.3,29.8,35.6,31.3,27.2,92,66,34,30.15,30.02,6,0,6,0.00
2013-10-28,67.8,49.1,32.4,49.5,39.9,30.1,96,73,43,30.24,30.06,5,0,5,0.00
2013-10-29,57.3,51.3,44.1,56.5,48.1,40.4,97,89,76,30.25,30.05,7,0,7,0.20
2013-10-30,72.4,63.9,55.6,67.8,61.6,54.8,100,92,82,30.05,29.81,12,1,12,0.03
2013-10-31,65.1,59.8,47.1,63.8,58.2,45.5,97,94,88,29.81,29.37,10,2,14,0.77
2013-11-1,63.5,51.8,45.9,47.3,44.8,41.4,96,79,49,29.87,29.63,16,1,16,0.00
2013-11-2,54.4,46.8,37.3,42.9,39.6,34.9,91,77,53,30.20,29.85,20,1,20,0.00
2013-11-3,57.2,44.5,31.1,40.2,35.2,29.6,96,73,46,30.32,30.15,10,1,10,0.00
2013-11-4,59.6,52.0,45.4,47.5,42.5,37.1,77,70,59,30.23,30.10,16,2,16,0.00
2013-11-5,59.7,55.3,51.1,54.5,51.1,46.9,95,86,76,30.26,29.98,13,2,13,0.19
2013-11-6,57.9,48.2,36.9,56.7,45.7,34.2,96,91,82,30.28,29.90,17,2,17,0.35
2013-11-7,55.7,41.1,29.3,40.7,34.4,27.9,100,79,51,30.42,30.28,11,1,11,0.00
2013-11-8,58.9,45.1,27.8,38.2,32.4,26.0,95,65,34,30.39,30.09,14,2,14,0.00
2013-11-9,67.5,54.0,46.0,43.8,39.6,36.7,74,59,38,30.24,30.06,13,2,13,0.00
2013-11-10,54.2,45.7,35.3,37.4,33.0,28.8,86,63,38,30.43,30.24,13,1,13,0.00
2013-11-11,66.5,47.2,32.2,49.6,38.2,29.3,92,72,51,30.51,30.13,24,3,24,0.09
2013-11-12,34.9,28.6,20.7,29.2,20.1,16.5,90,71,51,30.79,30.51,21,3,21,0.01
2013-11-13,46.7,31.9,17.2,20.6,17.1,14.4,92,59,28,30.74,30.33,11,2,11,0.00
2013-11-14,59.4,44.5,31.2,28.3,22.1,17.7,63,43,22,30.33,30.05,15,3,15,0.00
2013-11-15,58.1,49.6,44.7,44.8,35.1,26.7,88,58,41,30.08,29.93,14,3,14,0.00
2013-11-16,65.0,58.7,48.8,61.4,54.1,44.1,93,85,79,29.94,29.61,20,6,20,0.13
2013-11-17,76.3,65.8,49.8,66.3,50.3,24.2,92,63,21,29.98,29.38,32,7,32,0.08
2013-11-18,55.7,46.5,34.9,40.2,33.8,28.0,83,63,36,30.31,29.97,22,2,22,0.00
2013-11-19,47.4,38.7,31.7,31.4,28.9,27.3,85,69,50,30.37,30.23,7,1,7,0.00
2013-11-20,50.1,40.2,34.5,42.2,34.5,28.5,92,80,71,30.24,30.04,12,3,12,0.16
2013-11-21,49.9,49.0,47.9,49.1,46.3,41.7,97,91,75,30.20,30.08,9,1,9,0.32
2013-11-22,49.8,38.0,33.8,48.7,35.4,30.4,96,90,84,30.55,30.20,19,4,19,0.01
2013-11-23,33.8,27.4,18.1,30.5,18.3,10.7,90,69,44,30.76,30.54,20,4,20,0.00
2013-11-24,28.6,21.8,13.7,15.5,10.5,5.0,86,63,37,30.80,30.49,9,1,9,0.00
2013-11-25,35.4,31.7,26.0,25.1,19.0,15.1,70,59,50,30.49,30.18,9,2,9,0.00
2013-11-26,38.5,32.3,24.0,29.5,23.2,12.4,82,69,59,30.29,30.11,22,3,22,0.00
2013-11-27,28.8,21.8,16.5,13.5,11.0,9.3,82,64,45,30.41,30.28,23,2,23,0.00
2013-11-28,46.1,31.5,15.8,27.4,19.7,11.3,83,63,45,30.53,30.29,15,2,15,0.00
2013-11-29,44.6,33.6,21.8,29.6,24.2,18.0,87,69,51,30.62,30.39,9,1,9,0.00
2013-11-30,59.7,42.1,25.1,41.4,33.3,23.1,94,73,49,30.40,30.10,9,1,11,0.00
2013-12-1,57.5,45.3,33.7,43.2,38.0,31.9,95,77,57,30.14,29.90,6,0,6,0.00
2013-12-2,57.3,45.3,37.1,46.8,40.2,33.8,95,83,68,29.90,29.68,7,0,7,0.00
2013-12-3,60.4,52.1,46.6,52.6,48.8,44.8,95,89,72,29.70,29.62,12,2,12,0.00
2013-12-4,66.8,54.3,39.5,56.3,49.2,33.5,98,84,63,29.87,29.51,19,3,19,0.00
2013-12-5,39.5,26.9,21.0,33.2,20.2,14.5,90,76,64,30.33,29.87,18,4,18,0.00
2013-12-6,22.7,19.4,15.1,18.2,11.5,4.5,87,71,60,30.64,30.30,16,4,16,0.00
2013-12-7,21.7,16.8,10.6,11.6,7.7,4.7,78,67,57,30.77,30.50,13,2,13,0.00
2013-12-8,27.1,22.8,18.8,25.2,19.9,10.9,100,88,63,30.51,30.05,12,2,12,0.00
2013-12-9,27.4,23.5,20.5,25.1,16.7,12.9,91,75,67,30.37,30.13,14,2,14,0.00
2013-12-10,35.7,24.5,14.3,18.4,14.6,9.7,83,67,48,30.36,30.28,16,2,16,0.03
2013-12-11,31.9,23.5,11.9,22.6,14.1,2.6,84,68,53,30.70,30.33,18,2,18,0.01
2013-12-12,37.7,22.3,6.6,17.2,10.7,2.6,87,63,40,30.70,30.31,12,2,12,0.00
2013-12-13,34.8,30.4,24.0,32.2,24.7,15.8,95,80,58,30.31,29.97,9,1,9,0.33
2013-12-14,33.1,30.5,26.2,31.7,28.8,23.1,96,93,88,30.19,29.86,21,2,21,0.07
2013-12-15,37.0,28.7,22.7,30.7,25.0,19.5,93,86,76,30.24,30.06,12,2,14,0.09
2013-12-16,39.6,31.3,25.7,31.9,27.9,23.9,93,87,73,30.17,30.01,13,1,13,0.12
2013-12-17,41.5,33.0,24.5,31.2,25.6,19.0,94,76,55,30.32,30.15,15,2,15,0.08
2013-12-18,53.2,38.8,21.6,39.4,27.3,18.4,91,65,41,30.30,29.95,18,4,18,0.01
2013-12-19,59.5,52.2,46.1,51.4,45.4,39.4,83,78,69,29.95,29.77,16,6,16,0.00
2013-12-20,69.3,52.3,35.5,59.3,47.8,33.6,93,85,70,29.87,29.68,18,4,18,0.04
2013-12-21,35.5,32.8,31.6,33.7,31.3,30.1,100,94,93,29.86,29.58,18,2,18,0.81
2013-12-22,33.7,31.3,26.3,31.7,29.0,23.0,95,91,86,30.31,29.67,16,2,16,0.07
2013-12-23,26.3,20.2,10.5,23.0,15.3,5.3,87,81,74,30.64,30.31,16,3,16,0.00
2013-12-24,22.5,14.9,4.2,12.9,5.2,0.2,86,66,45,30.68,30.39,14,3,14,0.00
2013-12-25,36.0,30.3,21.9,29.9,24.3,12.9,88,78,68,30.42,30.27,11,3,11,0.00
2013-12-26,50.0,36.3,24.1,32.4,25.7,21.6,94,69,33,30.41,30.27,12,2,12,0.00
2013-12-27,55.3,39.6,28.9,34.3,28.5,23.6,83,66,39,30.41,30.26,9,1,9,0.00
2013-12-28,59.9,45.2,29.6,35.1,30.3,25.2,86,58,32,30.27,29.92,14,2,14,0.00
2013-12-29,43.8,30.0,16.6,32.0,22.5,6.2,86,74,61,30.30,29.87,20,4,20,0.00
2013-12-30,30.6,19.5,10.1,15.1,5.7,1.3,73,55,40,30.40,30.26,11,1,13,0.00
2013-12-31,45.6,34.4,22.7,26.1,20.7,15.0,77,58,41,30.45,30.19,9,3,14,0.00
2014-1-1,47.7,35.8,23.2,31.0,26.7,21.0,91,71,48,30.19,30.02,18,3,18,0.00
2014-1-2,23.3,16.4,7.4,20.9,11.4,3.8,91,81,69,30.55,30.09,20,4,20,0.00